Terminal Aerodrome Forecast
Issued by NWS

Home | Current Version | Previous Version | Text Only | Print | Product List | Glossary On
Versions: 1 2 3 4 5 6 7 8 9 10 11 12 13 14 15 16 17 18 19 20 21 22 23 24 25 26 27 28 29 30 31 32 33 34 35 36 37 38 39 40
000
FTUS45 KSLC 240658 AAA
TAFENV
TAF AMD
KENV 240658Z 2407/2506 VRB04KT P6SM SCT120
     FM240800 30007KT P6SM SCT050 BKN150
     FM241600 31012G20KT P6SM SCT100 SCT150
     FM242200 31008KT P6SM SCT100 SCT150
      AMD LTD TO CLD VIS AND WIND=

USA.gov is the U.S. government's official web portal to all federal, state and local government web resources and services.